Regional Weather Roundup
Issued by NWS

Home | Current Version | Previous Version | Graphics & Text | Print | Product List | Glossary On
Versions: 1 2 3 4 5 6 7 8 9 10 11 12 13 14 15 16 17 18 19 20 21 22 23 24 25 26 27
000
ASUS45 KSLC 260710
RWRUT

UTAH REGIONAL WEATHER ROUNDUP
NATIONAL WEATHER SERVICE SALT LAKE CITY UT
100 AM MDT MON JUN 26 2017

UTZ001>011-023>025-260800-

NORTHERN UTAH

CITY           SKY/WX    TMP DP  RH WIND       PRES   REMARKS
BRIGHAM CITY   CLEAR     68  43  39 NW6       30.11R
HILL AFB       CLEAR     71  42  35 E18G24    30.14S
LOGAN          CLEAR     69  49  48 S3        30.15S
OGDEN          CLEAR     73  43  33 S9        30.10S
SALT LAKE CITY NOT AVBL
TOOELE VALLEY  CLEAR     59  37  44 SE9       30.11S
WENDOVER         N/A     74  31  20 W5        30.10S
HEBER CITY     CLEAR     50  41  71 CALM      30.23S
WEST JORDAN    CLEAR     70  50  48 CALM      30.13S

$$

UTZ011>015-024>027-260800-

CENTRAL/NORTHEAST UTAH

CITY           SKY/WX    TMP DP  RH WIND       PRES   REMARKS
PROVO AIRPORT  CLEAR     66  42  41 S5        30.13S
MOAB/CANYONLAN CLEAR     81  22  11 NE10      30.07R
DELTA          CLEAR     70  28  21 NE7       30.12S
PRICE          CLEAR     69  20  15 NW6       30.22R
VERNAL         CLEAR     65  31  28 N9        30.20S

$$

UTZ013>016-019>022-027-260800-

SOUTHERN UTAH

CITY           SKY/WX    TMP DP  RH WIND       PRES   REMARKS
BRYCE CANYON   CLEAR     52  30  43 W10       30.38S
CEDAR CITY     CLEAR     75  27  17 SE10      30.17F
MILFORD        CLEAR     69  19  15 CALM      30.12S
ST GEORGE      SUNNY     87  36  16 E13       29.93S
HANKSVILLE     CLEAR     73  18  12 CALM      30.09S
BLANDING       CLEAR     63  27  25 N9        30.25S

$$

REGIONAL REPORTS     COLORADO/ARIZONA

CITY           SKY/WX    TMP DP  RH WIND       PRES   REMARKS
CRAIG, CO      CLEAR     48  38  68 CALM      30.31R
GRAND JUNCTION CLEAR     78  27  15 VRB5      30.13R
RIFLE, CO      CLEAR     65  31  28 E7        30.23R
MONTROSE, CO   CLEAR     63  32  31 SE8       30.23R
CORTEZ, CO     CLEAR     54  32  43 NE8       30.20S
COLORADO CITY    N/A     64  36  34 CALM      30.15S
PAGE, AZ       NOT AVBL
GRAND CANYON   CLEAR     51  37  58 CALM      30.31S
KINGMAN, AZ    CLEAR     84  36  18 VRB6      30.01R
FLAGSTAFF, AZ  PTCLDY    56  44  64 CALM      30.34S

$$

REGIONAL REPORTS    NEVADA/IDAHO/WYOMING

CITY           SKY/WX    TMP DP  RH WIND       PRES   REMARKS
LAS VEGAS, NV  CLEAR     98  19   6 SW7       29.86R HX  91
ELY, NY        CLEAR     59  28  30 SE9       30.24S
ELKO, NV       PTCLDY    68  35  29 NE6       30.12S
POCATELLO, ID  CLEAR     61  45  55 E8        30.14S
BURLEY, ID     CLEAR     61  49  64 SW5       30.08S
FORT BRIDGER,    N/A     64  30  27 S3        30.38S
EVANSTON, WY   CLOUDY    62  34  35 S5        30.35S
ROCK SPRINGS,  CLEAR     57  32  38 NE8       30.33S
KEMMERER, WY     N/A     55  37  50 N10       30.38S

$$




USA.gov is the U.S. government's official web portal to all federal, state and local government web resources and services.